Regional Weather Roundup
Issued by NWS

Home | Current Version | Previous Version | Graphics & Text | Print | Product List | Glossary On
Versions: 1 2 3 4 5 6 7 8 9 10 11 12 13 14 15 16 17 18 19 20 21 22 23 24 25 26 27 28 29 30 31 32 33 34 35 36 37 38 39 40 41 42 43 44 45 46 47 48 49 50
524
ASUS43 KLSX 271557
RWRMO

WEATHER SUMMARY FOR MISSOURI
NATIONAL WEATHER SERVICE SPRINGFIELD MO
1100 AM CDT TUE JUN 27 2017

NOTE: "FAIR" INDICATES FEW OR NO CLOUDS BELOW 12,000 FEET WITH NO
       SIGNIFICANT WEATHER AND/OR OBSTRUCTIONS TO VISIBILITY.
       CURRENT SKY AND/OR WEATHER CONDITIONS ARE NOT AVAILABLE FOR
       CHILLICOTHE AND FARMINGTON.

MOZ001>031-035>038-043-044-053-054-271700-
...NORTHERN AND WESTERN MISSOURI...

CITY           SKY/WX    TMP DP  RH WIND       PRES   REMARKS
KANSAS CTY INT MOSUNNY   71  60  68 SE14G23   30.09F
LEE`S SUMMIT   SUNNY     72  59  63 SE14      30.09F
ST JOSEPH      SUNNY     72  61  68 SE16      30.09F
CHILLICOTHE      N/A     72  59  63 SE9       30.12F

$$
MOZ066>068-077>081-088>096-101>105-271700-
...SOUTHWEST MISSOURI...

CITY           SKY/WX    TMP DP  RH WIND       PRES   REMARKS
SPRINGFIELD    SUNNY     72  63  73 S12       30.12S
BRANSON        MOSUNNY   73  63  68 SE7       30.13F

$$
MOZ032>034-039>042-045>050-055>058-069>072-271700-
...CENTRAL MISSOURI...

CITY           SKY/WX    TMP DP  RH WIND       PRES   REMARKS
COLUMBIA       NOT AVBL
JEFFERSON CITY MOSUNNY   70  60  70 SE6       30.14F
SEDALIA        SUNNY     72  63  73 E10       30.13F
WARRENSBURG    SUNNY     70  55  60 E9        30.11F

$$
MOZ051-052-059>065-271700-
...EAST CENTRAL MISSOURI...

CITY           SKY/WX    TMP DP  RH WIND       PRES   REMARKS
ST LOUIS INTL  MOSUNNY   75  55  49 SE9       30.15F

$$
MOZ072>076-082>087-097>100-106>115-271700-
...SOUTH CENTRAL AND SOUTHEAST MISSOURI...

CITY           SKY/WX    TMP DP  RH WIND       PRES   REMARKS
CAPE GIRARDEAU SUNNY     74  56  53 E8        30.14F
POPLAR BLUFF   SUNNY     74  62  66 VRB5      30.13F
WEST PLAINS    MOSUNNY   71  58  63 SE6       30.16F

$$



USA.gov is the U.S. government's official web portal to all federal, state and local government web resources and services.